Driggs, ID

6:54 AM MST on February 26, 2017 (GMT -0700)
Driggs

Weather History for KDIJ - November, 2012

Change the Weather History Date:

Friday, November 9, 2012

  Actual Average (KJAC) Record (KJAC)
Temperature  
Mean Temperature 30 °F -  
Max Temperature 37 °F 39 °F 58 °F (1978)
Min Temperature 23 °F 17 °F -2 °F (1977)
Degree Days  
Heating Degree Days 35    
Moisture  
Dew Point 27 °F    
Average Humidity 93    
Maximum Humidity 100    
Minimum Humidity 81    
Precipitation  
Precipitation 0.08 in - - ()
Sea Level Pressure  
Sea Level Pressure 29.61 in    
Wind  
Wind Speed 8 mph (NE)    
Max Wind Speed 14 mph    
Max Gust Speed -    
Visibility 3 miles    
Events Fog , Rain , Snow    
Averages and records for this station are not official NWS values.
T = Trace of Precipitation, MM = Missing Value Source: NWS Daily Summary

Daily Weather History Graph

Daily Weather History Graph

Search for Another Location

Airport or City:

Trip Planner

Search our weather history database for the weather conditions in past years. The results will help you decide how hot, cold, wet, or windy it might be!

Date:

Astronomy

Nov. 09, 2012 Rise Set
Actual Time 7:11 AM MST 5:04 PM MST
Civil Twilight 6:41 AM MST 5:34 PM MST
Nautical Twilight 6:06 AM MST 6:09 PM MST
Astronomical Twilight 5:32 AM MST 6:43 PM MST
Moon 2:05 AM MST (11/9) 2:27 PM MST (11/9)
Length of Visible Light 10h 53m
Length of Day
9h 52m
Waning Crescent, 22% of the Moon is Illuminated
Nov 9
Waning Crescent
Nov 13
New
Nov 20
First Quarter
Nov 28
Full
Dec 6
Last Quarter

Hourly Weather History & Observations

Time (MST) Temp. Windchill Dew Point Humidity Pressure Visibility Wind Dir Wind Speed Gust Speed Precip Events Conditions
12:56 AM 36.9 °F 32.2 °F 32.9 °F 86% 29.46 in 10.0 mi North 5.8 mph - N/A   Overcast
1:21 AM 37.4 °F 31.4 °F 33.8 °F 87% 29.60 in 10.0 mi NE 8.1 mph - N/A   Overcast
1:56 AM 36.9 °F 32.2 °F 34.0 °F 89% 29.46 in 10.0 mi NE 5.8 mph - N/A   Overcast
2:56 AM 36.9 °F 31.4 °F 34.0 °F 89% 29.45 in 10.0 mi Variable 6.9 mph - 0.00 in   Overcast
3:10 AM 37.4 °F 30.3 °F 33.8 °F 87% 29.58 in 10.0 mi SW 10.4 mph - 0.00 in   Overcast
3:22 AM 35.6 °F 30.7 °F 32.0 °F 87% 29.59 in 7.0 mi Variable 5.8 mph - 0.00 in Snow Light Snow
3:31 AM 33.8 °F 27.0 °F 30.2 °F 87% 29.60 in 1.8 mi WSW 8.1 mph - 0.01 in Snow Light Snow
3:35 AM 33.8 °F 26.4 °F 30.2 °F 87% 29.59 in 1.0 mi SW 9.2 mph - 0.01 in Snow Light Snow
3:38 AM 33.8 °F 27.0 °F 30.2 °F 87% 29.60 in 1.2 mi SW 8.1 mph - 0.01 in Snow Light Snow
3:43 AM 33.8 °F 27.0 °F 30.2 °F 87% 29.61 in 2.0 mi SSW 8.1 mph - 0.01 in Snow Light Snow
3:56 AM 32.0 °F 23.0 °F 31.1 °F 96% 29.51 in 1.0 mi South 11.5 mph - 0.01 in Snow Light Snow
4:14 AM 32.0 °F 23.0 °F 30.2 °F 93% 29.62 in 0.5 mi South 11.5 mph - 0.00 in Fog , Snow Light Snow
4:31 AM 32.0 °F 22.1 °F 30.2 °F 93% 29.63 in 0.8 mi SSE 13.8 mph - 0.00 in Snow Light Snow
4:40 AM 30.2 °F 21.9 °F 30.2 °F 100% 29.63 in 0.5 mi SSE 9.2 mph - 0.00 in Fog , Snow Light Snow
4:56 AM 31.1 °F 21.4 °F 30.0 °F 96% 29.54 in 0.5 mi SSE 12.7 mph - 0.00 in Fog , Snow Light Snow
5:03 AM 30.2 °F 21.3 °F 30.2 °F 100% 29.63 in 0.8 mi SSE 10.4 mph - 0.00 in Snow Light Snow
5:11 AM 30.2 °F 21.3 °F 30.2 °F 100% 29.64 in 0.5 mi South 10.4 mph - 0.00 in Fog , Snow Light Snow
5:39 AM 30.2 °F 20.8 °F 30.2 °F 100% 29.65 in 0.8 mi SSE 11.5 mph - 0.00 in Snow Light Snow
5:47 AM 30.2 °F 20.8 °F 30.2 °F 100% 29.65 in 1.2 mi SSE 11.5 mph - 0.00 in Snow Light Snow
5:56 AM 31.1 °F 22.4 °F 30.0 °F 96% 29.59 in 4.0 mi South 10.4 mph - 0.00 in Snow Light Snow
6:07 AM 30.2 °F 22.6 °F 30.2 °F 100% 29.64 in 10.0 mi SSE 8.1 mph - 0.00 in Snow Light Snow
6:14 AM 30.2 °F 22.6 °F 28.4 °F 93% 29.64 in 10.0 mi SSE 8.1 mph - 0.00 in Snow Light Snow
6:56 AM 31.1 °F 23.7 °F 28.0 °F 88% 29.60 in 6.0 mi South 8.1 mph - 0.00 in Snow Light Snow
7:04 AM 30.2 °F 24.3 °F 28.4 °F 93% 29.65 in 3.0 mi South 5.8 mph - 0.00 in Snow Light Snow
7:56 AM 31.1 °F 23.7 °F 29.1 °F 92% 29.62 in 10.0 mi SSE 8.1 mph - 0.00 in Snow Light Snow
8:09 AM 30.2 °F 24.3 °F 28.4 °F 93% 29.66 in 1.8 mi South 5.8 mph - 0.00 in Snow Light Snow
8:17 AM 30.2 °F 24.3 °F 28.4 °F 93% 29.67 in 2.0 mi South 5.8 mph - 0.00 in Snow Light Snow
8:24 AM 30.2 °F 25.4 °F 28.4 °F 93% 29.66 in 4.0 mi South 4.6 mph - 0.00 in Snow Light Snow
8:36 AM 30.2 °F 25.4 °F 28.4 °F 93% 29.67 in 4.0 mi South 4.6 mph - 0.00 in Snow Light Snow
8:49 AM 30.2 °F 26.7 °F 28.4 °F 93% 29.65 in 2.5 mi SSW 3.5 mph - 0.00 in Snow Light Snow
8:56 AM 31.1 °F 27.7 °F 29.1 °F 92% 29.60 in 1.8 mi SSW 3.5 mph - 0.00 in Snow Light Snow
9:02 AM 30.2 °F 25.4 °F 28.4 °F 93% 29.66 in 3.0 mi SSW 4.6 mph - 0.00 in Snow Light Snow
9:12 AM 30.2 °F 25.4 °F 28.4 °F 93% 29.66 in 10.0 mi SW 4.6 mph - 0.00 in   Overcast
9:21 AM 30.2 °F 26.7 °F 28.4 °F 93% 29.66 in 10.0 mi WSW 3.5 mph - 0.00 in   Overcast
9:56 AM 32.0 °F - 28.0 °F 85% 29.58 in 9.0 mi Calm Calm - 0.00 in   Overcast
10:37 AM 33.8 °F - 28.4 °F 81% 29.65 in 10.0 mi Calm Calm - 0.00 in   Overcast
10:48 AM 33.8 °F - 30.2 °F 87% 29.64 in 10.0 mi Calm Calm - 0.00 in   Overcast
10:56 AM 32.9 °F 27.5 °F 29.1 °F 86% 29.57 in 10.0 mi NNW 5.8 mph - 0.00 in Rain Light Rain
11:27 AM 32.0 °F 24.2 °F 30.2 °F 93% 29.65 in 10.0 mi NNW 9.2 mph - 0.02 in Snow Light Snow
11:45 AM 30.2 °F 21.9 °F 30.2 °F 100% 29.63 in 3.0 mi North 9.2 mph - 0.03 in Snow Light Snow
11:48 AM 30.2 °F 21.9 °F 30.2 °F 100% 29.64 in 1.8 mi North 9.2 mph - 0.03 in Snow Light Snow
11:56 AM 31.1 °F 23.7 °F 30.0 °F 96% 29.59 in 0.8 mi North 8.1 mph - 0.03 in Snow Light Snow
12:03 PM 30.2 °F 23.4 °F 30.2 °F 100% 29.64 in 0.5 mi NNW 6.9 mph - 0.00 in Fog , Snow Light Snow
12:12 PM 30.2 °F 24.3 °F 30.2 °F 100% 29.65 in 0.8 mi NNW 5.8 mph - 0.01 in Snow Light Snow
12:19 PM 30.2 °F 25.4 °F 30.2 °F 100% 29.65 in 1.2 mi NNW 4.6 mph - 0.01 in Snow Light Snow
12:41 PM 32.0 °F 26.4 °F 30.2 °F 93% 29.62 in 1.8 mi North 5.8 mph - 0.02 in Snow Light Snow
12:56 PM 32.0 °F 28.7 °F 30.0 °F 92% 29.56 in 1.2 mi North 3.5 mph - 0.02 in Snow Light Snow
12:59 PM 32.0 °F 28.7 °F 30.2 °F 93% 29.62 in 1.0 mi North 3.5 mph - 0.00 in Snow Light Snow
1:15 PM 30.2 °F 22.6 °F 30.2 °F 100% 29.61 in 0.8 mi North 8.1 mph - 0.01 in Snow Light Snow
1:21 PM 30.2 °F 21.9 °F 30.2 °F 100% 29.60 in 0.5 mi NNE 9.2 mph - 0.01 in Fog , Snow Light Snow
1:40 PM 30.2 °F 23.4 °F 28.4 °F 93% 29.62 in 1.0 mi North 6.9 mph - 0.01 in Snow Light Snow
1:56 PM 31.1 °F 23.1 °F 29.1 °F 92% 29.57 in 1.5 mi North 9.2 mph - 0.02 in Snow Light Snow
2:01 PM 30.2 °F 21.9 °F 28.4 °F 93% 29.62 in 3.0 mi North 9.2 mph - 0.00 in Snow Light Snow
2:08 PM 30.2 °F 21.9 °F 28.4 °F 93% 29.61 in 8.0 mi NNE 9.2 mph - 0.00 in Snow Light Snow
2:16 PM 30.2 °F 20.8 °F 28.4 °F 93% 29.61 in 2.5 mi NE 11.5 mph - 0.00 in Snow Light Snow
2:20 PM 30.2 °F 20.8 °F 28.4 °F 93% 29.60 in 1.5 mi NE 11.5 mph - 0.00 in Snow Light Snow
2:22 PM 30.2 °F 20.2 °F 28.4 °F 93% 29.60 in 1.0 mi NNE 12.7 mph - 0.00 in Snow Light Snow
2:27 PM 30.2 °F 20.2 °F 28.4 °F 93% 29.60 in 0.5 mi NNE 12.7 mph - 0.00 in Fog , Snow Light Snow
2:34 PM 30.2 °F 21.9 °F 28.4 °F 93% 29.61 in 0.5 mi NNE 9.2 mph - 0.00 in Fog , Snow Light Snow
2:38 PM 30.2 °F 22.6 °F 28.4 °F 93% 29.61 in 0.8 mi NNE 8.1 mph - 0.00 in Snow Light Snow
2:40 PM 30.2 °F 22.6 °F 28.4 °F 93% 29.61 in 1.0 mi NNE 8.1 mph - 0.00 in Snow Light Snow
2:44 PM 30.2 °F 21.9 °F 28.4 °F 93% 29.60 in 1.2 mi North 9.2 mph - 0.00 in Snow Light Snow
2:49 PM 30.2 °F 21.3 °F 28.4 °F 93% 29.60 in 1.5 mi NNE 10.4 mph - 0.00 in Snow Light Snow
2:56 PM 30.0 °F 21.1 °F 28.0 °F 92% 29.55 in 1.8 mi North 10.4 mph - 0.00 in Snow Light Snow
3:02 PM 30.2 °F 20.2 °F 28.4 °F 93% 29.60 in 3.0 mi North 12.7 mph - 0.00 in Snow Light Snow
3:33 PM 28.4 °F 18.5 °F 26.6 °F 93% 29.61 in 2.5 mi NNE 11.5 mph - 0.00 in Snow Light Snow
3:56 PM 29.1 °F 19.4 °F 27.1 °F 92% 29.58 in 1.0 mi North 11.5 mph - 0.00 in Snow Light Snow
4:03 PM 28.4 °F 18.5 °F 26.6 °F 93% 29.61 in 1.2 mi North 11.5 mph - 0.00 in Snow Light Snow
4:09 PM 28.4 °F 18.5 °F 26.6 °F 93% 29.61 in 1.0 mi NNE 11.5 mph - 0.00 in Snow Light Snow
4:21 PM 28.4 °F 18.0 °F 26.6 °F 93% 29.60 in 0.8 mi NNE 12.7 mph - 0.00 in Snow Light Snow
4:33 PM 28.4 °F 17.5 °F 26.6 °F 93% 29.61 in 1.0 mi NNE 13.8 mph - 0.00 in Snow Light Snow
4:38 PM 28.4 °F 18.0 °F 26.6 °F 93% 29.60 in 1.5 mi NNE 12.7 mph - 0.00 in Snow Light Snow
4:45 PM 28.4 °F 18.0 °F 26.6 °F 93% 29.60 in 2.0 mi NNE 12.7 mph - 0.00 in Snow Light Snow
4:56 PM 28.0 °F 18.6 °F 26.1 °F 92% 29.60 in 3.0 mi NNE 10.4 mph - 0.00 in Snow Light Snow
5:03 PM 28.4 °F 19.1 °F 26.6 °F 93% 29.62 in 2.5 mi NNE 10.4 mph - 0.00 in Snow Light Snow
5:30 PM 28.4 °F 19.1 °F 26.6 °F 93% 29.60 in 1.8 mi NNE 10.4 mph - 0.00 in Snow Light Snow
5:43 PM 28.4 °F 20.4 °F 26.6 °F 93% 29.61 in 1.0 mi NNE 8.1 mph - 0.00 in Snow Light Snow
5:56 PM 28.0 °F 20.0 °F 26.1 °F 92% 29.60 in 1.2 mi North 8.1 mph - 0.00 in Snow Light Snow
6:03 PM 26.6 °F 19.1 °F 26.6 °F 100% 29.62 in 1.5 mi NNE 6.9 mph - 0.00 in Snow Light Snow
6:15 PM 26.6 °F 17.5 °F 26.6 °F 100% 29.61 in 2.0 mi North 9.2 mph - 0.00 in Snow Light Snow
6:25 PM 26.6 °F 19.1 °F 26.6 °F 100% 29.62 in 1.5 mi North 6.9 mph - 0.00 in Snow Light Snow
6:37 PM 26.6 °F 19.1 °F 26.6 °F 100% 29.62 in 1.5 mi NNE 6.9 mph - 0.00 in Snow Light Snow
6:39 PM 26.6 °F 19.1 °F 26.6 °F 100% 29.62 in 1.2 mi North 6.9 mph - 0.00 in Snow Light Snow
6:56 PM 27.1 °F 19.7 °F 26.1 °F 96% 29.61 in 1.8 mi North 6.9 mph - 0.00 in Snow Light Snow
7:10 PM 26.6 °F 20.0 °F 26.6 °F 100% 29.63 in 1.2 mi North 5.8 mph - 0.00 in Snow Light Snow
7:18 PM 26.6 °F 18.2 °F 24.8 °F 93% 29.61 in 1.0 mi NNE 8.1 mph - 0.00 in Snow Light Snow
7:30 PM 26.6 °F 18.2 °F 24.8 °F 93% 29.62 in 0.8 mi NNE 8.1 mph - 0.00 in Snow Light Snow
7:37 PM 26.6 °F 18.2 °F 24.8 °F 93% 29.63 in 1.0 mi NE 8.1 mph - 0.00 in Snow Light Snow
7:44 PM 26.6 °F 17.5 °F 24.8 °F 93% 29.62 in 1.2 mi NNE 9.2 mph - 0.00 in Snow Light Snow
7:56 PM 26.1 °F 17.6 °F 24.1 °F 92% 29.61 in 2.0 mi NE 8.1 mph - 0.00 in Snow Light Snow
8:06 PM 24.8 °F 15.3 °F 23.0 °F 93% 29.61 in 3.0 mi NE 9.2 mph - 0.00 in Snow Light Snow
8:15 PM 24.8 °F 17.9 °F 21.2 °F 86% 29.62 in 1.8 mi NE 5.8 mph - 0.00 in Snow Light Snow
8:31 PM 24.8 °F 16.9 °F 23.0 °F 93% 29.63 in 2.0 mi NE 6.9 mph - 0.00 in Snow Light Snow
8:40 PM 24.8 °F 14.6 °F 23.0 °F 93% 29.63 in 1.5 mi NE 10.4 mph - 0.00 in Snow Light Snow
8:56 PM 25.2 °F 15.1 °F 23.0 °F 91% 29.62 in 1.8 mi NE 10.4 mph - 0.00 in Snow Light Snow
9:08 PM 24.8 °F 16.1 °F 23.0 °F 93% 29.63 in 1.2 mi NE 8.1 mph - 0.00 in Snow Light Snow
9:15 PM 24.8 °F 15.3 °F 23.0 °F 93% 29.63 in 1.5 mi NE 9.2 mph - 0.00 in Snow Light Snow
9:29 PM 24.8 °F 16.9 °F 23.0 °F 93% 29.64 in 1.2 mi NE 6.9 mph - 0.00 in Snow Light Snow
9:36 PM 24.8 °F 16.9 °F 23.0 °F 93% 29.64 in 1.0 mi NE 6.9 mph - 0.00 in Snow Light Snow
9:56 PM 25.2 °F 15.7 °F 23.0 °F 91% 29.62 in 4.0 mi NE 9.2 mph - 0.00 in Snow Light Snow
10:25 PM 24.8 °F 16.9 °F 21.2 °F 86% 29.64 in 10.0 mi NE 6.9 mph - 0.00 in Snow Light Snow
10:41 PM 24.8 °F 19.1 °F 21.2 °F 86% 29.64 in 10.0 mi NE 4.6 mph - 0.00 in Snow Light Snow
10:56 PM 24.1 °F 19.7 °F 21.0 °F 88% 29.64 in 10.0 mi Variable 3.5 mph - 0.00 in Snow Light Snow
11:08 PM 24.8 °F 17.9 °F 21.2 °F 86% 29.64 in 2.5 mi South 5.8 mph - 0.00 in Snow Light Snow
11:16 PM 24.8 °F 20.5 °F 21.2 °F 86% 29.64 in 1.5 mi SE 3.5 mph - 0.00 in Snow Light Snow
11:23 PM 24.8 °F 19.1 °F 21.2 °F 86% 29.64 in 2.5 mi SSE 4.6 mph - 0.00 in Snow Light Snow
11:30 PM 24.8 °F 20.5 °F 21.2 °F 86% 29.64 in 3.0 mi South 3.5 mph - 0.00 in Snow Light Snow
11:38 PM 24.8 °F 19.1 °F 21.2 °F 86% 29.64 in 2.5 mi South 4.6 mph - 0.00 in Snow Light Snow
11:48 PM 23.0 °F 17.0 °F 21.2 °F 93% 29.63 in 2.5 mi South 4.6 mph - 0.00 in Snow Light Snow
11:56 PM 23.0 °F 18.4 °F 21.0 °F 92% 29.64 in 2.5 mi South 3.5 mph - 0.00 in Snow Light Snow